Wind_Speed
28 27 26 25 25 25 23 22 22 22 22 23 23 23 22 21 20 20 20 21 23 24 24 23 23 22 21 21 21 20 21 21 20 18 17 16 15 14 13 12 12 12 11 11 11 11 11 11 11 10 10 11 10 9 10 9 9 8 8 8 7 7 7
28 28 27 26 26 25 24 23 24 23 23 24 23 23 23 22 22 22 22 22 23 23 24 24 24 23 22 21 21 21 22 22 21 20 18 17 17 16 14 13 12 12 12 11 11 11 12 11 12 12 12 11 10 10 10 10 10 9 8 9 8 8 9
26 27 27 27 26 25 25 24 24 24 24 23 23 23 23 24 25 25 23 22 22 23 24 25 25 25 23 22 22 22 22 23 22 21 20 18 17 16 14 14 13 12 12 12 12 11 11 11 12 13 13 12 10 10 11 10 10 10 10 11 9 8 10
24 27 26 26 26 25 24 25 25 25 24 23 23 24 25 26 27 26 25 23 22 23 24 24 25 25 24 23 23 23 23 23 22 22 20 18 16 15 15 14 14 13 12 12 12 12 12 11 12 13 13 13 13 12 11 11 10 10 11 12 11 10 11
20 25 25 26 28 25 23 24 26 27 26 22 23 26 26 26 27 26 25 24 22 22 23 23 23 23 23 23 22 22 22 23 23 22 21 19 17 16 15 15 14 14 13 13 12 13 14 13 11 12 13 14 13 12 12 12 11 11 12 12 12 11 10
17 21 23 26 30 27 23 23 25 27 27 23 22 26 26 25 26 26 25 25 24 22 22 22 22 22 23 22 22 21 21 22 23 23 22 20 19 17 16 16 15 14 14 14 13 13 15 14 13 12 13 13 12 12 11 11 11 11 11 13 13 12 10
14 17 19 23 29 28 22 22 23 24 26 23 22 25 26 25 25 25 24 24 25 24 23 22 22 22 22 22 22 21 21 22 23 23 23 21 19 18 17 16 16 15 15 14 14 14 14 15 15 14 14 13 13 12 12 12 13 12 12 13 14 14 13
12 14 15 16 22 23 20 19 20 20 21 21 20 22 25 25 24 25 25 24 24 24 23 23 22 22 22 22 22 22 21 21 21 22 22 21 20 19 18 18 17 16 16 16 16 16 16 15 15 15 15 14 14 14 13 14 15 14 13 13 13 13 13
12 12 13 14 16 17 16 16 16 16 19 20 20 22 23 24 23 25 26 25 25 25 25 24 22 22 22 22 23 23 22 21 20 21 22 21 20 19 19 18 17 18 18 17 17 17 17 17 16 16 17 17 16 17 16 16 16 15 14 14 15 14 13
13 14 13 14 15 15 16 17 17 17 19 22 23 24 25 25 24 24 24 25 26 26 27 25 23 22 23 24 23 21 21 21 20 21 21 22 21 20 19 18 18 18 18 18 17 17 17 18 17 17 19 19 19 19 18 17 17 16 15 15 15 14 14
13 17 16 15 16 16 15 17 18 18 21 23 25 26 27 27 27 26 25 25 25 26 26 26 25 22 23 25 25 22 21 21 21 21 22 22 21 20 20 19 18 18 18 18 18 17 16 17 17 17 19 19 18 19 19 18 17 17 15 14 13 13 13
8 14 17 16 16 16 15 16 17 19 21 23 25 26 26 26 26 25 25 25 25 25 25 26 26 24 24 24 24 23 22 22 22 22 22 22 22 21 20 20 19 18 18 17 18 17 16 16 16 17 18 18 17 16 17 17 17 17 16 14 13 13 13
6 9 12 13 13 13 14 15 16 18 19 21 23 24 24 25 25 25 26 26 26 26 25 25 25 25 25 24 23 23 23 23 23 23 22 22 22 21 20 20 19 19 18 17 17 17 16 16 16 16 16 17 17 16 16 17 17 17 17 15 13 13 13
5 7 8 9 10 10 11 14 16 17 18 19 21 21 22 23 25 27 29 28 27 26 26 26 25 24 25 25 25 25 24 24 23 24 24 23 22 22 21 20 19 19 17 17 17 17 16 16 15 15 15 15 16 16 16 17 17 17 17 16 14 13 14
6 7 8 8 7 7 7 10 12 15 17 18 19 20 21 22 24 26 27 28 28 27 26 26 25 23 23 25 26 26 26 25 23 23 25 25 24 24 23 20 19 19 18 17 17 17 16 16 15 15 15 15 15 15 16 16 16 16 17 16 15 14 15
6 8 8 8 7 5 4 5 7 9 12 14 16 17 19 21 23 25 26 28 29 28 27 27 26 25 26 27 26 26 25 25 25 24 25 26 25 25 25 23 21 20 20 20 20 18 17 17 16 16 15 15 16 16 17 17 16 17 18 17 16 15 15
10 10 9 8 7 5 3 3 3 4 5 8 11 13 16 18 20 22 25 27 29 29 28 29 29 29 30 29 27 26 25 24 24 24 24 24 25 25 24 23 22 22 23 23 21 20 19 19 18 17 16 16 16 16 17 16 16 18 19 16 15 16 16
10 11 11 9 8 6 4 3 1 1 2 4 7 10 13 15 16 18 21 24 26 25 25 26 27 29 30 29 28 27 27 25 25 24 23 22 24 23 21 21 23 24 24 23 21 20 20 20 19 19 17 16 16 17 17 17 18 19 17 15 16 17 17
11 13 13 12 12 10 8 6 4 2 1 2 3 6 9 12 14 16 19 20 21 22 23 24 25 27 27 27 28 28 29 29 29 27 24 21 20 20 19 19 22 24 23 22 21 21 21 20 20 20 20 19 17 16 17 18 18 17 15 15 17 17 17
13 16 16 16 15 14 12 10 7 5 3 1 2 4 6 8 10 12 15 16 17 19 21 22 24 26 26 27 28 28 28 30 32 30 26 21 19 19 19 18 19 21 21 19 18 19 20 20 19 20 22 21 20 18 18 18 18 17 16 16 17 16 17
15 17 18 18 17 16 14 12 10 7 5 3 2 2 3 5 7 8 11 13 14 17 19 20 21 23 23 25 27 27 27 29 31 30 28 26 23 22 21 19 19 21 20 18 16 17 17 16 16 18 20 22 22 20 19 19 19 18 17 16 17 17 18
16 16 16 16 15 16 16 15 14 12 10 8 6 6 6 3 3 5 8 10 12 14 16 17 17 18 19 21 24 26 27 28 29 30 31 31 28 25 22 21 21 23 24 21 18 18 18 16 15 16 16 18 19 18 18 20 21 19 18 18 18 18 18
15 15 14 14 13 13 14 15 16 15 13 12 11 11 10 9 4 2 5 7 7 9 11 12 13 14 16 18 20 22 24 25 26 28 31 31 29 26 24 22 21 23 24 22 18 18 19 18 17 18 16 14 13 12 15 20 21 20 20 19 18 18 17
15 16 15 14 14 13 14 15 17 17 17 17 17 15 14 13 9 2 3 4 4 6 7 9 10 12 13 15 17 20 22 23 24 26 29 31 30 26 24 21 19 21 23 22 19 18 18 16 18 21 20 16 13 12 15 20 20 19 20 19 18 17 17
15 16 16 14 15 15 16 16 17 18 19 20 19 17 16 15 13 9 7 5 3 4 5 6 8 11 13 13 14 18 20 21 21 21 23 26 26 24 22 20 18 19 21 20 19 20 19 16 17 20 20 18 17 17 20 23 20 16 16 17 18 18 18
15 15 15 14 16 18 19 19 19 19 21 21 19 18 18 19 20 20 19 15 12 11 9 6 3 2 6 7 9 12 14 15 17 16 15 15 18 19 18 17 16 17 17 17 18 19 17 15 15 17 18 18 17 17 19 20 18 16 16 17 18 18 19
15 15 14 14 15 17 19 21 21 21 24 25 24 22 22 23 24 25 24 23 22 21 19 16 13 11 8 7 7 8 8 9 11 12 10 10 13 15 15 15 15 15 15 16 17 18 17 14 12 14 16 17 17 16 16 17 18 19 19 18 18 19 19
14 14 15 15 16 17 19 21 22 22 24 26 27 27 26 25 26 26 26 26 27 24 21 19 18 17 15 14 15 15 15 13 12 11 11 10 10 11 12 13 13 13 13 12 12 14 15 13 12 12 13 14 14 14 14 15 16 18 18 17 17 18 19
12 13 14 15 16 17 18 20 21 22 22 22 23 26 27 28 29 28 26 26 25 22 20 20 20 19 18 19 20 21 21 20 18 15 13 11 8 7 7 8 8 9 10 9 9 8 9 9 10 12 12 11 11 11 12 13 14 15 15 16 16 16 16
12 13 14 15 16 17 18 19 21 21 20 20 20 21 23 25 28 29 28 26 24 23 22 21 20 19 19 18 18 18 19 21 21 20 20 18 16 13 12 9 7 7 7 7 8 8 8 10 10 10 9 9 8 9 9 10 11 11 11 12 11 10 10
13 14 14 15 15 16 17 18 19 19 19 19 19 20 20 20 21 23 24 24 24 24 24 23 22 22 21 19 17 16 15 17 19 19 19 18 17 18 18 17 15 14 12 9 8 7 7 7 6 5 5 4 2 2 3 4 5 6 6 5 5 4 3
14 14 14 15 15 16 16 17 18 18 18 18 18 19 19 19 18 18 19 20 20 20 21 22 23 23 23 23 22 20 18 17 17 18 17 16 16 16 17 17 17 17 15 15 14 13 13 12 10 10 9 8 6 5 4 2 1 2 3 2 1 1 0
16 16 15 15 15 16 17 19 19 19 19 18 18 18 18 18 18 16 15 15 15 15 16 17 19 20 21 22 22 22 21 20 18 17 17 17 16 16 15 14 14 14 13 13 13 13 13 12 11 10 9 9 8 7 5 3 2 1 1 0 1 1 1
17 18 17 17 17 17 18 20 20 20 21 21 20 19 18 18 17 16 16 14 13 13 14 14 16 18 19 20 20 20 20 20 19 17 16 16 15 14 13 13 12 12 11 10 10 10 8 7 7 7 7 8 9 7 4 3 3 4 4 4 4 4 4
16 17 17 17 17 17 17 18 18 19 20 20 20 19 19 18 16 15 15 14 13 13 14 14 15 16 16 16 16 16 17 17 17 16 15 14 12 12 11 11 10 10 10 9 8 8 7 6 6 6 5 6 6 3 1 1 2 3 4 5 5 5 5
14 14 14 14 15 14 15 15 15 16 17 18 17 17 17 17 17 15 15 14 14 13 13 14 13 12 11 11 11 12 13 14 14 14 14 13 12 11 11 11 10 10 10 9 9 8 8 7 7 6 5 5 5 4 2 2 1 0 1 2 2 3 3
12 12 12 12 12 12 12 12 12 13 14 15 14 14 14 14 15 15 14 14 14 13 13 13 12 11 10 10 11 11 11 11 11 12 12 13 13 12 11 11 10 10 10 10 10 10 10 9 9 8 8 7 6 6 5 4 4 4 3 3 3 4 4
12 11 10 10 10 10 10 10 10 11 12 12 12 12 12 12 12 13 13 12 12 12 12 12 11 10 10 10 11 11 11 10 10 11 11 11 11 11 11 11 10 10 10 11 11 11 11 10 10 10 9 9 8 8 7 7 7 6 6 6 6 6 6
Wind_Direction
210 204 199 198 201 205 205 202 200 198 198 203 206 204 201 199 198 197 201 208 208 206 205 204 203 204 206 207 207 206 206 206 206 206 208 209 208 208 210 211 212 213 213 217 221 221 222 221 218 218 224 230 231 231 233 234 232 234 242 241 233 238 237
208 203 198 198 202 204 203 200 199 198 202 209 212 207 201 199 200 202 205 209 210 209 208 207 206 206 206 208 210 209 208 207 208 209 210 212 212 211 211 213 216 218 217 216 218 222 224 226 226 225 227 229 232 236 237 237 239 236 238 244 242 246 249
202 201 198 197 200 201 199 197 197 200 206 210 209 205 201 201 206 210 211 211 211 210 210 210 208 208 208 209 211 212 212 211 211 211 211 213 215 213 213 215 216 219 222 221 218 220 222 225 228 228 228 228 228 235 238 238 243 242 240 244 244 246 253
195 196 194 193 194 195 194 194 197 203 207 207 206 205 205 210 215 217 217 215 212 210 210 211 210 210 210 211 213 215 215 214 214 214 212 213 216 216 217 219 217 216 220 222 219 219 218 220 227 228 228 229 228 232 237 237 240 243 244 246 244 243 250
191 191 190 190 192 191 190 193 200 208 211 204 204 210 212 218 222 221 219 217 215 212 210 209 209 210 212 213 215 217 217 217 216 215 215 215 217 218 218 220 219 218 219 219 219 223 223 220 222 228 230 232 233 235 240 242 242 246 249 247 244 244 249
188 186 185 188 192 191 190 195 202 211 215 204 201 213 215 216 221 222 219 218 218 214 210 209 209 210 213 213 214 217 218 220 219 218 217 217 217 217 218 219 219 220 221 220 219 224 229 226 221 223 227 229 232 232 235 239 239 241 247 248 244 242 240
186 180 179 185 192 194 192 196 201 209 215 206 200 213 216 213 220 223 217 217 219 215 210 210 210 211 213 214 214 215 218 220 221 221 219 218 219 219 219 220 220 220 221 221 220 220 225 228 226 225 226 225 226 227 228 233 234 232 237 246 248 246 244
188 181 177 178 188 195 195 197 199 200 205 203 198 211 217 213 218 224 219 216 217 215 212 211 212 213 215 217 217 217 218 218 220 222 220 217 219 221 220 221 222 222 220 220 222 221 221 223 225 227 228 226 226 227 229 235 240 238 234 240 246 247 247
183 180 184 183 183 189 192 192 192 192 200 204 202 209 218 215 216 224 225 221 217 219 219 216 213 214 216 219 221 221 220 219 219 221 220 217 218 220 221 222 223 223 221 221 222 224 224 222 220 223 227 227 228 231 232 236 241 240 235 236 240 243 243
182 174 176 189 192 194 198 199 198 198 208 217 217 219 224 224 222 223 226 225 223 226 228 224 217 216 219 223 224 223 223 223 221 221 220 218 219 220 220 221 222 223 222 222 223 225 227 225 219 221 228 229 230 234 235 235 238 238 235 235 239 242 244
187 188 184 189 195 198 203 206 205 205 211 221 225 227 229 230 231 232 231 232 230 229 231 229 223 218 221 228 232 228 225 224 224 223 221 220 220 221 221 220 220 222 222 221 222 223 225 227 223 222 229 231 230 234 235 234 235 235 230 229 233 238 242
166 185 189 189 192 198 204 209 212 213 216 221 225 228 230 231 234 237 239 241 241 239 240 240 235 228 225 229 235 234 229 224 223 224 223 222 223 222 221 222 221 221 223 221 222 223 222 225 225 224 230 232 230 232 234 232 232 233 229 225 228 234 237
141 162 177 185 190 198 208 216 222 224 226 228 230 232 232 232 233 235 238 242 245 246 248 248 245 241 237 234 235 236 235 229 223 222 223 222 223 223 222 222 221 221 222 221 222 223 222 223 226 227 231 236 234 230 232 233 230 231 231 228 228 232 234
139 143 155 171 183 193 209 220 226 231 232 233 237 238 238 237 237 237 238 240 243 248 251 251 247 245 245 243 240 240 240 237 229 225 226 223 221 222 222 221 221 220 219 220 220 221 223 223 226 229 230 233 233 229 230 234 234 233 235 233 230 231 235
142 133 128 138 159 183 210 221 225 232 235 237 239 240 241 241 241 242 242 241 244 248 252 253 252 249 248 247 246 244 244 243 239 234 233 230 225 222 221 219 218 217 216 217 218 218 220 220 223 228 229 229 231 228 228 232 233 233 235 235 231 230 235
96 106 107 112 123 146 189 213 222 228 232 237 241 241 243 243 243 244 244 243 244 245 246 248 249 251 250 249 248 247 246 246 246 243 242 240 234 228 223 220 218 217 217 221 223 222 221 221 221 223 225 226 227 228 229 230 231 233 233 233 233 231 233
51 69 77 83 90 103 129 170 202 208 210 224 233 237 242 243 244 246 246 246 246 245 245 246 246 247 248 248 248 246 245 245 247 249 250 249 246 238 229 223 220 220 224 228 231 230 227 226 225 223 223 226 227 228 230 230 231 235 236 234 233 234 238
40 57 63 63 67 71 73 75 102 176 189 217 227 234 239 241 242 243 245 246 246 245 246 246 246 246 246 246 246 246 246 245 244 246 250 252 250 244 235 227 222 224 229 230 230 232 232 232 230 226 223 224 227 230 233 233 231 235 238 235 233 238 242
49 60 59 56 58 60 62 62 57 61 102 230 235 237 242 243 241 240 241 243 244 244 245 246 247 246 246 248 249 249 249 248 246 245 248 250 248 243 241 236 228 228 230 229 229 231 233 234 234 233 230 227 227 229 232 236 238 241 243 240 239 243 244
55 59 57 54 54 56 59 63 64 73 97 143 208 226 233 239 242 242 241 241 242 243 244 245 247 248 249 251 253 253 251 250 249 248 246 245 242 239 242 242 237 234 232 228 229 233 235 236 235 236 237 233 229 229 232 236 241 243 243 241 242 244 244
61 61 59 58 57 57 57 55 53 55 57 46 8 302 264 243 239 240 238 235 236 238 240 243 246 249 251 251 251 252 250 250 252 249 245 243 240 237 236 235 235 236 233 227 226 230 235 238 238 239 243 242 238 236 235 235 238 240 240 241 242 243 245
63 61 59 56 55 56 56 54 52 48 43 34 18 4 354 335 266 239 233 231 232 234 237 241 244 247 250 249 249 250 248 249 250 247 245 245 242 238 236 234 231 231 232 230 230 232 233 237 241 240 239 240 240 240 239 235 236 241 241 241 242 244 246
62 62 59 56 55 56 56 56 55 52 52 50 42 33 24 19 14 242 212 206 213 222 231 240 244 246 250 251 251 252 251 249 247 246 246 246 242 238 237 235 230 230 231 231 234 238 237 236 241 238 232 229 227 230 240 241 239 241 242 242 244 247 250
63 62 59 57 59 61 60 60 59 58 59 60 56 48 37 32 33 45 177 171 188 210 221 236 246 252 259 262 261 260 256 248 243 244 243 237 233 233 233 231 227 226 227 227 227 233 235 232 236 237 237 238 233 231 243 246 242 239 239 242 246 249 255
63 62 60 60 65 71 70 68 65 62 62 64 64 63 59 58 63 74 90 107 145 186 201 223 240 248 255 262 266 266 261 250 242 245 243 230 223 225 228 227 222 216 217 221 222 228 232 233 235 237 238 241 243 242 247 252 257 256 248 249 253 256 260
66 67 67 67 71 77 76 73 69 65 67 70 74 77 78 79 82 83 85 91 98 96 91 94 111 209 234 236 237 241 246 242 233 233 236 223 213 213 213 212 211 209 213 218 219 222 228 232 235 235 234 239 246 248 249 257 270 276 268 263 264 264 266
71 72 76 76 75 75 75 74 73 72 74 76 78 79 81 84 85 84 83 84 84 83 84 91 97 100 106 117 138 158 167 175 181 183 181 176 179 186 189 191 196 204 212 217 216 217 220 225 230 231 231 237 245 251 255 259 267 272 270 268 267 266 266
79 77 78 78 78 77 77 76 76 77 76 75 75 76 78 80 81 79 78 79 79 80 84 88 91 94 99 103 105 109 112 119 129 139 142 145 153 166 175 180 187 198 210 217 220 219 219 226 237 239 237 241 247 253 259 263 266 270 270 268 265 264 262
85 84 82 81 80 80 80 78 77 78 77 74 72 73 75 76 76 75 75 78 81 82 82 81 84 91 98 103 105 104 102 102 105 109 110 109 114 130 145 156 171 187 199 205 207 205 204 212 227 231 230 234 241 248 255 260 264 268 267 266 266 267 266
88 88 85 84 82 80 80 80 79 78 76 74 71 70 71 73 75 75 75 78 81 80 78 78 81 85 89 92 97 101 101 100 100 100 98 95 94 95 97 101 117 140 157 172 182 188 193 201 211 215 214 220 232 243 251 256 259 259 258 258 260 261 261
91 89 87 84 81 80 80 80 81 80 76 73 73 72 72 72 74 76 77 79 80 78 77 77 76 74 75 75 76 80 86 90 92 93 93 93 91 88 86 85 87 94 101 108 117 127 141 156 166 167 158 162 195 240 263 267 263 254 244 244 248 244 243
92 90 87 83 80 80 81 80 82 82 79 75 73 72 73 73 74 78 79 79 79 79 78 78 77 74 71 69 68 69 71 76 80 82 84 87 87 86 84 82 81 83 86 89 90 92 97 102 104 104 103 98 87 71 49 22 327 265 243 223 216 217 188
97 91 87 85 82 81 81 81 82 83 82 80 77 74 74 73 73 76 79 79 80 81 80 79 78 76 73 72 71 71 71 72 75 77 78 78 79 78 76 76 76 75 76 80 81 79 82 88 90 87 80 74 73 68 52 36 37 8 280 230 57 44 34
98 94 90 89 87 84 83 82 82 83 82 81 79 79 78 77 74 76 81 83 84 87 86 83 80 78 75 73 72 73 73 74 75 78 80 81 81 80 78 77 79 80 80 82 82 80 79 79 79 72 61 59 66 66 41 8 11 11 0 0 8 9 1
100 97 94 91 87 85 84 84 84 84 82 81 80 80 80 79 78 77 79 83 85 87 87 85 81 77 74 71 70 72 74 75 76 80 86 91 94 95 95 94 94 94 94 92 90 89 89 86 81 77 69 72 84 95 70 6 0 352 351 351 352 356 359
104 99 94 90 87 85 85 86 86 85 84 84 83 82 81 81 80 79 80 82 84 85 88 89 85 80 77 76 76 76 76 75 74 77 84 90 94 95 97 99 98 98 97 96 92 88 87 86 89 91 92 98 115 133 142 135 146 263 352 6 12 27 33
110 104 99 93 87 83 84 86 85 83 83 82 80 80 80 80 81 80 80 81 83 84 87 90 90 87 86 85 84 83 83 82 79 77 81 86 88 88 89 90 89 88 87 85 84 84 84 83 84 87 88 90 98 105 111 114 115 114 107 95 85 81 76
120 112 105 94 85 81 82 82 81 79 78 77 75 74 73 72 74 75 73 75 79 81 82 84 85 84 84 82 81 81 83 84 82 80 81 83 85 87 86 84 81 80 79 79 79 79 78 77 76 77 78 80 83 87 91 94 96 97 97 94 92 92 89
Height
1516 1518 1521 1524 1527 1530 1532 1535 1538 1540 1542 1545 1547 1549 1552 1554 1556 1557 1558 1559 1560 1562 1563 1565 1566 1568 1569 1571 1573 1574 1575 1577 1578 1580 1581 1582 1583 1584 1585 1586 1587 1588 1589 1590 1591 1591 1592 1592 1593 1594 1594 1594 1595 1595 1596 1596 1596 1597 1597 1597 1598 1599 1599
1511 1515 1518 1521 1524 1527 1530 1533 1535 1537 1540 1542 1545 1547 1550 1552 1554 1555 1556 1557 1558 1560 1562 1563 1565 1566 1568 1570 1571 1572 1574 1575 1577 1578 1579 1581 1582 1583 1584 1585 1586 1586 1587 1588 1589 1590 1590 1591 1591 1592 1593 1593 1594 1594 1595 1595 1595 1596 1596 1596 1597 1597 1598
1508 1512 1515 1518 1521 1524 1527 1530 1533 1535 1538 1540 1543 1545 1548 1550 1551 1553 1554 1556 1557 1559 1560 1562 1563 1565 1566 1568 1569 1571 1572 1574 1575 1576 1578 1579 1580 1581 1582 1583 1584 1585 1586 1586 1587 1588 1589 1590 1590 1591 1591 1592 1593 1593 1594 1594 1594 1595 1595 1595 1596 1596 1596
1505 1508 1512 1515 1518 1522 1525 1527 1530 1532 1535 1538 1541 1543 1546 1548 1549 1551 1553 1554 1556 1557 1559 1560 1562 1563 1565 1566 1568 1569 1571 1572 1574 1575 1577 1578 1579 1580 1581 1582 1582 1584 1585 1585 1586 1587 1588 1588 1589 1589 1590 1591 1591 1592 1592 1593 1593 1594 1594 1594 1594 1595 1595
1504 1506 1510 1513 1515 1520 1523 1525 1528 1530 1533 1537 1539 1541 1543 1546 1547 1549 1551 1553 1554 1556 1557 1560 1561 1563 1564 1565 1567 1568 1569 1571 1572 1573 1575 1576 1578 1579 1580 1580 1581 1582 1583 1584 1585 1585 1586 1586 1587 1588 1588 1589 1590 1591 1591 1592 1592 1592 1592 1593 1593 1594 1594
1503 1505 1508 1510 1513 1518 1520 1523 1526 1528 1531 1535 1537 1540 1541 1544 1546 1547 1550 1551 1553 1555 1556 1559 1560 1562 1563 1564 1566 1567 1568 1569 1570 1571 1573 1574 1576 1577 1578 1579 1580 1581 1582 1582 1583 1584 1584 1585 1586 1587 1587 1588 1589 1589 1590 1590 1591 1591 1591 1591 1592 1592 1593
1503 1505 1507 1509 1512 1516 1518 1522 1525 1527 1530 1533 1536 1538 1539 1542 1544 1545 1548 1549 1551 1553 1555 1557 1559 1560 1561 1563 1564 1565 1566 1568 1568 1570 1571 1573 1574 1575 1576 1577 1578 1579 1580 1581 1582 1582 1583 1583 1584 1585 1585 1586 1587 1588 1589 1589 1589 1590 1590 1590 1590 1590 1591
1504 1505 1507 1509 1511 1515 1518 1521 1524 1526 1529 1532 1535 1536 1538 1541 1542 1543 1546 1548 1550 1552 1553 1556 1557 1559 1560 1561 1562 1564 1565 1566 1567 1568 1570 1571 1572 1573 1574 1575 1576 1577 1578 1579 1580 1580 1581 1581 1582 1583 1583 1584 1585 1586 1586 1587 1587 1588 1588 1589 1589 1589 1590
1504 1505 1507 1509 1511 1515 1518 1520 1523 1525 1527 1530 1533 1535 1536 1539 1540 1542 1544 1546 1548 1549 1551 1554 1556 1557 1559 1559 1561 1562 1563 1565 1566 1567 1568 1569 1570 1571 1572 1573 1574 1575 1575 1576 1577 1578 1578 1579 1580 1580 1580 1581 1582 1583 1584 1584 1585 1586 1586 1587 1587 1588 1589
1503 1505 1506 1508 1511 1514 1517 1519 1522 1524 1526 1528 1531 1533 1535 1537 1539 1540 1542 1544 1546 1547 1549 1552 1554 1556 1557 1557 1559 1561 1562 1563 1564 1565 1566 1567 1568 1569 1570 1572 1572 1573 1573 1574 1576 1576 1577 1577 1578 1579 1578 1579 1579 1580 1581 1582 1582 1583 1584 1585 1585 1586 1587
1504 1505 1506 1508 1511 1513 1515 1518 1520 1522 1524 1526 1528 1530 1532 1534 1536 1538 1540 1542 1544 1545 1547 1549 1552 1553 1554 1555 1556 1558 1560 1561 1562 1564 1564 1565 1567 1568 1569 1570 1571 1571 1571 1572 1574 1575 1576 1576 1576 1577 1576 1577 1577 1578 1578 1579 1580 1581 1582 1583 1584 1584 1585
1505 1505 1505 1507 1509 1511 1514 1516 1519 1521 1522 1524 1526 1527 1529 1532 1534 1536 1537 1539 1541 1543 1544 1546 1549 1551 1552 1553 1554 1555 1557 1558 1560 1561 1562 1563 1564 1566 1567 1568 1569 1570 1570 1571 1572 1573 1574 1574 1574 1575 1575 1575 1576 1577 1577 1577 1578 1579 1580 1581 1582 1583 1583
1506 1505 1505 1506 1508 1511 1513 1515 1518 1520 1521 1523 1524 1526 1528 1530 1532 1533 1535 1536 1538 1539 1541 1543 1545 1547 1549 1550 1552 1553 1554 1555 1557 1558 1559 1561 1562 1563 1565 1565 1567 1568 1568 1569 1570 1570 1571 1572 1573 1573 1573 1574 1574 1575 1576 1576 1577 1577 1577 1579 1580 1580 1581
1505 1505 1505 1506 1508 1511 1513 1515 1517 1519 1520 1522 1523 1525 1527 1528 1530 1532 1533 1534 1536 1537 1539 1540 1542 1543 1545 1547 1548 1550 1552 1553 1555 1556 1557 1558 1559 1561 1562 1563 1564 1565 1566 1567 1567 1568 1569 1570 1572 1572 1572 1573 1573 1574 1574 1574 1575 1575 1576 1576 1577 1578 1579
1506 1506 1506 1507 1508 1510 1512 1514 1516 1517 1519 1521 1522 1523 1525 1526 1528 1529 1531 1533 1534 1535 1536 1538 1539 1541 1542 1543 1544 1546 1548 1550 1552 1554 1556 1556 1556 1557 1559 1560 1561 1563 1564 1565 1565 1566 1567 1568 1570 1570 1571 1571 1572 1572 1573 1573 1573 1574 1574 1574 1575 1576 1576
1507 1507 1507 1508 1509 1510 1512 1513 1515 1517 1518 1519 1521 1522 1523 1524 1526 1527 1529 1530 1531 1533 1534 1535 1537 1538 1539 1540 1541 1543 1545 1546 1549 1551 1553 1554 1554 1554 1556 1557 1558 1560 1561 1562 1563 1564 1565 1566 1567 1568 1569 1569 1570 1570 1570 1571 1571 1572 1572 1572 1572 1573 1573
1509 1508 1508 1509 1510 1511 1512 1514 1515 1517 1518 1519 1520 1520 1521 1522 1524 1525 1526 1527 1529 1530 1532 1533 1534 1535 1536 1537 1538 1540 1541 1543 1545 1547 1550 1552 1553 1554 1554 1555 1556 1557 1558 1559 1560 1561 1562 1563 1564 1565 1567 1567 1568 1568 1568 1569 1569 1569 1569 1571 1571 1571 1571
1512 1510 1510 1510 1511 1511 1512 1513 1514 1515 1516 1517 1517 1518 1519 1520 1521 1523 1523 1525 1526 1528 1529 1530 1531 1532 1533 1534 1536 1537 1538 1539 1541 1543 1546 1549 1551 1553 1554 1554 1554 1555 1556 1557 1558 1559 1560 1561 1561 1562 1564 1565 1566 1566 1567 1567 1566 1566 1568 1569 1569 1570 1570
1513 1511 1511 1512 1512 1512 1512 1512 1513 1514 1515 1516 1516 1517 1518 1518 1520 1521 1521 1523 1524 1525 1527 1528 1528 1529 1531 1532 1533 1534 1535 1537 1538 1539 1543 1545 1548 1550 1552 1553 1553 1554 1555 1556 1556 1557 1557 1558 1559 1559 1560 1562 1563 1564 1565 1564 1563 1564 1566 1567 1567 1568 1569
1515 1514 1514 1513 1513 1513 1513 1513 1513 1514 1514 1515 1516 1517 1518 1518 1519 1519 1520 1521 1522 1523 1524 1524 1525 1526 1527 1529 1530 1532 1534 1535 1535 1537 1540 1542 1544 1546 1548 1551 1552 1553 1553 1554 1555 1555 1555 1556 1557 1557 1557 1558 1560 1561 1562 1562 1561 1563 1565 1565 1566 1566 1567
1517 1516 1515 1516 1515 1514 1514 1514 1514 1515 1515 1516 1516 1517 1517 1518 1518 1518 1518 1519 1520 1520 1520 1521 1522 1523 1524 1526 1527 1528 1530 1531 1532 1534 1537 1539 1541 1542 1543 1546 1549 1551 1551 1551 1552 1553 1553 1554 1555 1555 1556 1556 1557 1558 1559 1559 1561 1562 1563 1563 1564 1564 1565
1519 1518 1518 1517 1517 1516 1515 1515 1515 1515 1516 1516 1516 1516 1516 1516 1516 1516 1516 1517 1517 1518 1518 1519 1519 1520 1521 1522 1523 1524 1526 1527 1529 1531 1533 1536 1538 1539 1539 1541 1544 1548 1549 1549 1549 1550 1550 1552 1552 1553 1554 1554 1555 1557 1556 1556 1558 1560 1560 1560 1561 1562 1562
1521 1521 1520 1520 1519 1517 1516 1516 1516 1516 1516 1515 1515 1515 1514 1514 1513 1513 1514 1514 1515 1516 1517 1517 1518 1518 1519 1519 1520 1521 1522 1524 1525 1527 1529 1532 1535 1536 1537 1538 1541 1544 1545 1546 1547 1548 1548 1548 1549 1550 1551 1552 1553 1555 1554 1553 1555 1557 1557 1558 1558 1559 1560
1523 1523 1522 1521 1520 1519 1518 1518 1518 1517 1516 1515 1514 1514 1513 1512 1512 1512 1512 1513 1513 1514 1515 1515 1516 1516 1517 1518 1518 1519 1520 1521 1522 1523 1525 1527 1530 1533 1535 1536 1538 1540 1542 1543 1544 1545 1546 1546 1546 1548 1550 1551 1554 1554 1552 1551 1553 1554 1554 1555 1556 1557 1557
1525 1524 1524 1523 1521 1521 1520 1520 1520 1519 1517 1516 1515 1515 1514 1513 1511 1511 1512 1512 1513 1513 1513 1514 1514 1515 1515 1516 1517 1517 1518 1519 1521 1521 1522 1523 1525 1529 1531 1532 1534 1537 1539 1540 1540 1541 1543 1544 1545 1547 1548 1550 1552 1553 1551 1550 1552 1553 1553 1553 1554 1554 1555
1526 1526 1526 1525 1524 1523 1522 1522 1522 1520 1519 1517 1517 1517 1516 1514 1513 1513 1513 1513 1513 1513 1514 1514 1514 1514 1515 1515 1516 1516 1517 1518 1519 1520 1521 1521 1522 1525 1527 1529 1531 1534 1536 1537 1537 1539 1540 1541 1543 1545 1546 1546 1548 1550 1550 1549 1550 1551 1551 1551 1551 1552 1552
1528 1528 1528 1527 1526 1525 1524 1524 1524 1522 1521 1521 1520 1520 1519 1517 1515 1515 1516 1515 1515 1515 1516 1515 1515 1515 1516 1516 1516 1516 1516 1517 1518 1519 1520 1521 1522 1524 1526 1528 1530 1532 1534 1535 1535 1536 1537 1539 1541 1543 1544 1544 1546 1547 1547 1547 1547 1548 1549 1549 1549 1549 1550
1530 1530 1530 1529 1528 1528 1527 1526 1526 1525 1524 1524 1524 1523 1522 1520 1518 1518 1519 1518 1518 1520 1520 1518 1517 1517 1518 1518 1518 1517 1518 1519 1519 1519 1521 1522 1523 1524 1526 1528 1529 1531 1532 1533 1533 1534 1535 1538 1540 1542 1542 1543 1544 1545 1544 1544 1544 1545 1546 1546 1546 1546 1546
1532 1532 1532 1531 1530 1530 1529 1528 1528 1527 1527 1527 1527 1526 1525 1523 1522 1521 1521 1521 1522 1524 1524 1522 1521 1521 1521 1521 1520 1520 1521 1521 1520 1520 1522 1524 1525 1526 1527 1528 1529 1530 1531 1532 1532 1533 1534 1536 1538 1540 1540 1541 1542 1542 1541 1542 1542 1543 1543 1543 1543 1543 1543
1534 1534 1533 1533 1532 1532 1531 1530 1529 1529 1529 1529 1529 1529 1528 1527 1526 1525 1525 1525 1526 1527 1526 1526 1526 1526 1525 1524 1523 1523 1523 1523 1522 1523 1523 1525 1527 1528 1528 1528 1529 1529 1530 1531 1531 1532 1532 1534 1537 1538 1539 1539 1540 1540 1540 1540 1541 1541 1542 1541 1541 1541 1541
1535 1535 1535 1534 1534 1534 1533 1532 1532 1531 1532 1532 1531 1531 1530 1531 1530 1529 1529 1530 1530 1530 1530 1530 1530 1529 1528 1528 1527 1526 1526 1525 1525 1525 1525 1526 1528 1529 1529 1529 1530 1531 1531 1531 1531 1532 1533 1534 1536 1538 1537 1538 1538 1538 1539 1539 1540 1540 1541 1541 1540 1540 1540
1536 1536 1536 1536 1536 1536 1536 1535 1534 1534 1534 1534 1534 1533 1533 1533 1534 1533 1533 1533 1534 1534 1534 1533 1533 1532 1531 1530 1529 1529 1529 1528 1528 1528 1528 1528 1529 1530 1531 1531 1532 1532 1532 1533 1534 1534 1535 1536 1537 1538 1537 1536 1536 1537 1538 1539 1540 1540 1540 1540 1539 1539 1539
1537 1537 1538 1538 1538 1538 1538 1536 1536 1536 1536 1536 1536 1535 1535 1536 1536 1536 1537 1537 1537 1537 1536 1536 1535 1535 1534 1534 1533 1532 1532 1531 1531 1531 1531 1531 1531 1532 1533 1533 1533 1534 1535 1535 1536 1536 1537 1537 1538 1538 1537 1535 1535 1536 1538 1539 1540 1540 1540 1539 1539 1538 1539
1538 1538 1539 1539 1539 1539 1539 1538 1539 1538 1538 1537 1537 1537 1537 1538 1539 1539 1539 1539 1539 1539 1538 1538 1538 1537 1537 1536 1536 1535 1535 1534 1535 1534 1534 1534 1535 1535 1536 1535 1535 1535 1536 1537 1537 1537 1538 1538 1538 1537 1536 1535 1536 1537 1538 1539 1539 1539 1539 1538 1538 1538 1538
1539 1540 1540 1540 1541 1540 1540 1541 1541 1540 1539 1539 1538 1539 1539 1540 1541 1541 1541 1541 1541 1540 1540 1540 1539 1539 1539 1539 1538 1538 1538 1537 1537 1537 1537 1537 1537 1537 1537 1537 1537 1537 1537 1538 1538 1538 1538 1537 1537 1536 1535 1535 1536 1537 1538 1539 1539 1539 1539 1538 1538 1538 1537
1541 1542 1542 1542 1542 1542 1542 1542 1542 1541 1541 1540 1540 1541 1541 1541 1542 1542 1542 1542 1542 1541 1541 1541 1541 1541 1541 1541 1541 1541 1540 1540 1540 1539 1539 1539 1539 1538 1538 1538 1539 1538 1538 1538 1538 1538 1537 1537 1536 1536 1536 1536 1537 1538 1538 1539 1539 1539 1539 1538 1538 1538 1537
1542 1543 1543 1544 1544 1544 1544 1544 1543 1542 1542 1541 1542 1542 1542 1543 1543 1543 1543 1543 1543 1543 1542 1542 1542 1543 1543 1543 1542 1542 1542 1542 1541 1541 1540 1540 1540 1539 1539 1539 1540 1540 1539 1539 1538 1538 1538 1537 1537 1537 1537 1537 1538 1538 1538 1539 1539 1539 1538 1538 1538 1537 1537
1543 1544 1544 1544 1545 1545 1545 1545 1544 1544 1543 1543 1543 1543 1543 1544 1544 1544 1544 1544 1544 1544 1543 1543 1543 1544 1544 1543 1543 1543 1543 1543 1542 1542 1541 1541 1541 1541 1540 1540 1541 1540 1540 1540 1539 1539 1539 1538 1538 1538 1538 1539 1539 1539 1539 1539 1539 1538 1538 1538 1538 1538 1537